DTTD

Details ICAO DTTD
Name REMADA
Region Tunisia
Timezone Africa/Tunis (UTC+1.0)
Plans Departing 6
Arriving 7
Stats Elevation 1,004 ft / 306 m (AMSL)
Location 32.306146° 10.382098°
Runways 1
Magnetic Variation 2.205° E
Sunrise 2018-05-22 04:17:56 UTC / 2018-05-22 05:17:56 Local
Sunset 2018-05-22 18:15:12 UTC / 2018-05-22 19:15:12 Local
Advertisement - Login to hide

Runways

ID Width Length Bearing (true) Bearing (mag) Surface Threshold Offset Overrun Length
02 148 ft / 45 m 7,827 ft / 2,386 m 22.67° 20.46° Asphalt 0 ft / 0 m 0 ft / 0 m
20 148 ft / 45 m 7,827 ft / 2,386 m 202.67° 200.46° Asphalt 0 ft / 0 m 0 ft / 0 m

Map

Weather


0- 5 10 15 20 25 30 35+ Temperature / ° C

Clouds and Precipitation
Forecast for 2018-05-22 12:00 UTC. Updated an hour ago

Ground ~20,000 ft ~40,000 ft Winds

METAR

DTTD 221200Z 06010KT 350V130 6000 FEW023 26/14 Q1013

TAF

Not found
Warning: Do not use this data for real-world aviation or navigation. No guarantee of current accuracy is given.